User: anonymous   Login
Location: Unspecified
(0.0000°N, 0.0000°E)
Time: 21:17:20
(UTC+01:00)
Language:

Cosmos 494 Rocket - Orbit

View from above orbital plane
View from above orbital plane
View from above satellite
View from above satellite

Ground track
Ground track

The orbit data is extracted from the following two-line orbital elements,

1  6061U 72043B   16341.89542937 -.00000023 +00000-0 +11465-5 0  9999
2  6061 074.0546 175.2886 0020165 351.0499 009.0293 14.40485429330373
Epoch (UTC): 06 December 2016 21:29:25
Eccentricity: 0.0020165
inclination: 74.0546°
perigee height: 742 km
apogee height: 771 km
right ascension of ascending node: 175.2886°
argument of perigee: 351.0499°
revolutions per day: 14.40485429
mean anomaly at epoch: 9.0293°
orbit number at epoch: 33037

The dashed part of the orbit path shows where the satellite is in the earth's shadow,  

DLR